Wind_Speed
21 21 21 22 21 21 22 22 22 23 22 22 21 19 18 17 17 15 14 14 13 12 11 12 11 10 9 9 8 9 8 7 6 5 4 5 5 2 1 2 4 5
22 21 21 21 21 22 21 20 21 22 23 22 21 19 17 16 16 16 15 14 14 13 12 12 12 10 11 10 9 10 11 9 8 6 5 6 6 3 1 1 2 3
23 21 21 21 21 22 21 20 20 21 21 21 20 18 17 16 16 17 17 15 15 14 13 13 13 12 12 11 10 11 12 10 9 8 7 6 6 5 4 3 3 3
25 24 22 21 21 21 21 20 20 21 20 20 19 18 17 17 17 17 17 16 16 15 15 15 14 14 14 13 11 11 11 11 9 9 8 7 6 6 6 4 4 4
26 25 24 22 21 21 21 20 20 21 20 20 20 19 17 17 18 18 18 17 17 17 16 15 15 14 15 16 13 12 12 12 10 9 9 8 7 7 6 5 5 6
26 26 25 24 23 22 22 21 21 21 20 20 20 19 19 18 18 18 19 19 19 18 16 16 15 13 14 16 14 12 13 13 11 9 9 9 8 8 7 6 5 6
26 26 25 24 24 23 22 21 21 22 21 21 20 19 19 20 19 18 17 18 20 19 17 17 17 13 12 15 15 13 12 13 11 10 11 11 9 8 8 7 6 5
26 26 25 24 24 23 22 21 22 22 21 21 20 18 18 20 20 19 17 17 20 20 17 17 18 15 12 14 14 13 12 13 12 9 10 11 10 9 8 8 8 7
25 26 25 24 23 23 22 21 21 22 21 20 21 20 19 19 20 20 20 20 20 20 19 18 18 16 15 15 15 13 12 13 13 11 9 11 11 10 9 9 9 9
26 26 25 25 24 24 23 21 21 22 21 21 22 21 20 20 19 20 21 20 19 20 20 20 20 18 17 16 16 15 12 11 13 13 12 11 12 11 9 8 9 8
26 26 26 26 25 24 24 23 22 22 22 21 22 22 22 21 20 20 21 20 18 19 20 21 21 20 19 18 17 16 15 12 11 12 12 11 11 11 10 9 9 10
27 27 27 27 25 23 22 23 24 23 23 22 21 21 23 23 21 21 21 21 20 18 18 20 20 19 20 20 17 15 15 14 12 12 12 12 11 11 10 10 10 11
29 29 28 27 27 24 21 23 24 23 23 22 20 19 21 23 23 22 22 22 21 20 19 19 18 17 18 19 18 17 15 15 15 14 13 12 11 11 11 11 11 11
30 30 28 27 27 25 23 23 23 23 22 22 21 20 20 21 23 23 23 22 21 22 21 19 17 17 17 17 17 17 16 15 15 14 13 13 12 12 12 12 13 13
31 30 28 26 25 25 24 23 23 23 22 22 23 23 21 21 21 22 23 22 20 21 22 21 19 18 18 17 16 16 17 15 14 13 13 12 12 12 12 11 11 11
32 30 28 26 25 26 24 24 24 24 23 24 24 24 23 22 21 21 22 21 20 22 23 21 19 17 17 17 17 16 16 16 14 13 12 11 11 11 10 10 10 9
33 30 29 28 27 27 26 26 25 24 25 27 26 25 25 24 23 22 22 21 20 21 22 21 20 19 18 18 18 17 16 16 15 14 12 10 10 10 10 9 9 8
33 31 31 30 27 25 25 26 27 25 26 28 27 27 27 26 24 23 23 22 21 21 22 23 22 21 20 19 19 18 17 17 16 14 12 11 12 12 10 8 7 7
32 30 30 29 26 22 20 22 24 24 24 27 29 28 28 27 25 23 23 23 22 22 23 23 23 23 21 19 19 18 18 17 16 14 13 12 12 12 9 7 6 7
30 29 28 27 25 22 18 17 18 20 22 25 27 27 26 26 25 24 23 22 22 22 22 23 23 23 21 20 19 18 17 17 16 15 14 12 11 10 9 7 7 8
27 27 26 25 23 21 18 16 15 16 19 21 23 25 25 25 24 22 22 22 22 22 22 22 22 22 21 21 20 19 17 16 15 15 15 14 12 11 10 9 9 10
20 21 23 24 22 20 17 15 15 15 15 16 18 21 22 21 20 19 20 21 22 22 22 21 22 22 21 21 20 19 18 15 14 15 17 16 14 12 11 10 11 11
12 12 14 16 16 14 13 13 13 14 14 14 16 18 19 20 19 18 17 18 19 19 20 20 20 20 20 19 19 18 16 15 16 17 17 16 15 13 13 12 11 11
13 13 13 13 9 6 9 12 14 14 14 14 16 17 17 17 18 17 17 17 17 18 18 17 17 17 17 17 16 15 14 16 18 19 18 17 16 15 14 13 13 12
14 15 14 10 6 7 12 17 20 20 20 19 18 18 17 17 18 18 17 17 17 17 16 16 15 15 15 15 15 14 15 18 20 20 20 19 18 16 14 13 12 10
10 11 11 8 8 12 19 23 23 21 21 20 18 18 19 19 19 19 18 17 16 16 15 15 14 15 15 16 16 16 17 19 21 22 22 21 20 18 15 13 11 9
Wind_Direction
203 206 209 210 210 210 209 209 211 211 210 211 211 210 211 213 213 212 210 207 208 209 207 207 209 206 204 207 215 219 216 210 204 208 221 212 196 185 42 17 10 7
203 205 207 210 211 210 210 211 212 210 210 213 215 213 215 217 216 214 213 211 213 215 216 216 215 213 212 207 209 215 215 213 210 216 232 219 207 216 243 269 327 342
202 203 204 208 209 208 208 210 210 211 212 215 218 217 217 219 218 216 215 214 215 216 217 217 215 215 215 211 212 216 216 216 216 221 229 220 216 230 229 233 281 305
203 203 204 206 207 206 206 208 211 214 215 217 219 219 219 220 218 215 215 216 217 216 215 216 215 216 217 215 218 220 220 219 219 224 230 227 231 242 236 244 286 308
204 205 205 206 206 205 205 208 212 215 217 220 221 221 221 220 218 217 219 221 218 215 215 219 224 227 222 217 218 223 222 219 219 227 231 229 238 247 243 250 286 307
206 206 207 208 207 205 207 210 212 214 218 221 223 224 221 219 221 220 221 223 219 214 215 221 228 231 223 216 217 226 226 220 221 230 230 228 239 250 247 249 280 300
208 207 207 207 207 206 208 212 213 214 217 219 222 225 221 218 220 219 218 218 215 213 217 223 227 226 217 214 218 226 228 224 226 237 237 235 243 254 248 249 270 282
210 210 208 206 206 207 211 215 216 215 217 219 220 221 220 219 218 218 217 213 210 214 220 224 226 223 216 216 220 226 229 225 228 241 244 237 241 251 248 245 257 267
209 210 209 208 208 210 214 217 217 213 215 218 217 218 220 220 219 220 221 218 217 220 223 223 224 224 222 221 224 229 230 227 230 240 244 239 240 251 255 250 254 262
208 209 210 210 210 212 215 217 215 213 214 217 218 220 221 220 221 220 219 221 225 225 224 222 222 223 222 220 224 230 231 231 235 238 240 245 247 251 255 253 254 258
207 208 209 211 212 215 218 218 217 216 218 221 222 222 220 218 220 220 218 220 226 226 222 220 222 226 225 221 225 229 229 235 241 238 238 244 246 244 246 251 257 262
207 209 210 211 212 216 218 216 216 217 219 222 224 223 219 217 218 219 219 221 224 225 224 224 228 230 226 223 225 225 225 232 240 240 240 243 242 239 242 250 257 262
207 208 209 210 211 213 215 214 215 217 217 217 219 220 218 217 219 219 218 221 223 224 227 229 228 224 221 223 227 227 228 233 236 237 237 239 243 242 243 249 255 259
208 208 207 209 210 211 213 216 217 217 216 213 215 218 217 217 220 220 218 219 222 222 224 226 225 224 226 227 228 228 231 234 233 232 234 237 242 246 248 251 253 257
207 206 206 208 209 210 213 218 219 219 218 216 215 217 219 220 219 217 216 218 220 220 221 224 227 230 232 229 226 226 230 233 232 231 235 240 245 249 251 252 253 258
202 202 203 206 209 210 213 218 221 220 218 216 216 217 219 220 218 214 214 216 217 217 219 221 223 225 227 226 227 229 231 233 234 234 238 244 249 249 250 253 258 260
200 202 203 204 210 213 214 217 220 219 217 216 217 218 219 219 219 217 216 215 214 215 218 220 221 221 222 224 227 229 230 232 234 239 244 249 252 252 254 260 267 264
200 203 204 205 209 213 215 217 220 220 219 218 219 219 219 221 222 222 220 216 213 213 216 219 222 222 222 225 227 228 230 232 234 238 239 243 254 261 260 262 268 260
197 198 201 203 205 208 211 216 220 221 221 221 220 218 218 220 221 221 220 217 213 213 215 218 220 222 224 226 227 228 232 232 230 230 228 231 247 256 253 254 257 235
192 193 195 197 200 203 205 208 214 218 218 219 219 217 216 217 218 220 220 218 217 216 216 217 217 220 224 227 228 230 233 231 227 228 228 224 228 235 237 242 237 219
190 192 195 198 199 199 199 198 198 203 206 209 212 213 215 216 217 220 219 218 218 217 215 214 216 219 222 226 230 233 234 232 227 226 224 219 219 226 231 231 221 214
191 197 200 202 202 198 194 188 185 189 193 195 197 200 203 205 206 207 208 209 210 210 211 211 214 219 221 223 229 234 234 229 218 211 211 211 215 221 221 217 214 213
210 219 219 218 214 202 191 189 193 196 194 195 193 189 189 191 191 191 193 197 199 201 205 208 211 215 219 222 227 231 229 219 207 203 204 204 206 209 209 206 206 209
231 239 247 246 234 198 186 199 207 207 206 209 206 196 189 189 190 189 188 190 194 196 199 204 207 211 216 220 223 223 216 212 209 205 200 198 197 196 198 199 198 199
232 239 251 246 209 192 211 216 216 216 218 218 211 202 195 191 190 190 186 187 192 194 196 200 204 208 214 218 218 213 206 208 210 204 195 193 191 188 187 190 191 190
238 248 257 235 200 212 226 226 222 216 208 203 200 199 194 186 184 187 186 186 189 191 193 197 201 207 211 215 217 211 205 207 209 204 197 190 186 185 183 181 182 181
Height
851 852 853 854 855 856 857 858 858 858 859 859 860 861 862 863 864 864 865 865 866 866 866 867 867 867 867 867 868 868 868 868 868 868 868 868 869 868 868 868 867 867
850 851 852 853 854 856 856 857 858 858 859 859 859 860 861 862 863 864 864 865 865 866 866 867 867 867 867 867 867 867 868 868 868 868 868 868 868 868 868 868 867 867
848 849 851 852 853 855 856 857 858 858 859 859 860 860 861 862 863 863 864 865 865 866 866 866 867 867 867 867 867 868 868 868 868 868 868 868 868 868 868 868 867 867
846 848 849 851 852 853 855 856 857 858 859 859 859 860 861 861 862 863 863 864 865 865 866 866 867 867 867 867 867 868 868 868 868 868 868 868 868 868 868 868 867 867
845 846 848 849 851 852 854 855 856 857 858 859 859 860 861 861 862 862 863 863 864 865 865 866 866 866 867 867 867 868 868 868 868 868 868 868 868 868 867 867 867 867
844 845 846 848 849 851 852 854 855 856 857 859 859 860 860 861 861 862 862 863 863 864 865 865 866 866 866 867 867 867 868 868 868 868 868 867 867 867 867 867 867 866
843 844 845 846 848 849 851 852 854 855 856 858 858 859 860 860 861 861 861 862 863 864 864 864 865 865 866 866 867 867 867 867 868 867 867 867 867 867 866 867 866 866
841 843 844 845 846 848 849 851 852 854 855 856 857 858 859 859 860 860 861 861 862 863 863 864 864 865 865 866 866 867 867 867 867 866 866 866 866 866 866 866 866 866
840 842 843 844 845 846 848 849 850 852 853 854 855 856 857 858 859 859 860 861 861 862 862 863 863 864 864 865 865 866 866 866 866 866 866 866 865 865 865 865 865 865
839 840 842 843 844 845 846 847 849 850 851 853 854 855 855 856 857 858 859 860 860 860 861 862 862 862 863 864 864 864 865 865 865 865 865 865 865 865 865 865 865 865
837 839 840 842 843 844 844 846 847 848 850 851 852 853 854 855 856 856 857 858 859 859 860 860 861 861 862 862 862 863 863 864 864 864 864 864 864 864 864 865 864 864
835 837 838 840 841 842 843 844 845 846 847 849 850 851 852 853 854 855 856 857 857 858 858 859 860 860 861 861 861 862 862 863 863 863 863 863 863 863 864 864 863 863
832 834 835 837 839 840 842 842 843 844 845 846 848 849 850 851 852 853 854 855 856 856 857 858 858 859 860 860 861 861 861 861 861 862 862 862 862 862 862 862 862 862
829 831 833 835 837 838 840 840 841 842 843 844 846 847 848 849 850 851 852 853 854 855 855 856 857 858 858 859 859 860 860 860 860 861 861 861 861 861 861 861 861 860
825 828 830 833 835 836 838 839 839 840 841 843 844 844 846 847 847 848 849 851 852 853 854 855 855 856 856 857 858 858 859 859 859 860 860 860 860 860 859 859 859 859
823 826 828 830 832 833 835 836 837 838 839 841 841 842 844 845 845 846 847 848 849 851 852 853 853 854 855 855 856 857 858 858 858 859 859 859 859 859 858 858 857 857
821 824 826 827 828 830 831 833 834 836 837 838 838 840 841 842 843 844 845 846 847 849 850 851 851 852 853 854 854 855 856 857 857 858 858 859 859 858 857 856 856 856
819 821 823 824 825 827 829 830 832 833 834 835 836 837 839 840 841 842 843 844 845 846 848 848 849 850 850 851 852 853 854 855 856 856 857 857 858 857 856 856 855 855
817 819 820 822 823 825 827 828 829 831 832 833 834 835 837 838 839 840 841 842 843 844 845 846 847 848 849 849 850 851 852 853 853 854 854 855 856 856 855 854 854 853
816 817 818 819 821 823 825 826 827 829 830 831 832 833 835 835 837 838 839 840 841 842 843 844 845 846 847 848 848 849 850 851 851 852 853 853 853 854 854 853 853 853
814 815 816 817 818 820 823 824 826 827 828 829 830 831 832 833 835 836 837 838 839 840 841 842 843 844 845 846 847 847 848 849 849 851 852 851 851 852 852 852 852 852
814 815 815 816 817 819 821 823 826 827 828 829 829 830 831 831 833 834 835 836 837 837 838 839 841 842 843 844 845 845 846 847 847 849 849 849 849 849 850 850 850 850
814 815 816 816 817 818 820 822 825 826 827 829 829 829 829 830 831 832 833 834 835 836 836 837 838 839 840 842 843 843 845 845 845 846 846 847 847 847 848 848 849 849
812 814 815 816 818 819 820 821 823 825 826 828 828 829 829 829 829 830 832 833 834 834 835 836 837 837 838 839 840 842 843 843 843 843 844 845 845 845 846 847 847 847
812 812 813 814 816 819 819 819 819 821 823 825 826 827 828 828 828 828 830 831 832 833 834 835 835 835 836 837 838 840 841 841 841 841 841 842 843 843 844 845 846 846
811 812 812 812 814 816 816 815 816 818 820 822 824 825 825 825 826 827 828 829 831 832 833 833 833 834 834 835 836 838 839 839 839 839 839 840 840 841 842 844 845 845